Location: Taipo
(41.0000°S, 175.9500°E)
Time: 10:29:25
(UTC+00:00)

CENTAUR R/B - Pass Details

Date: 18 April 2024
Orbit: 669 x 1515 km, 63.4° (Epoch: 24 May)

Event Time Altitude Azimuth Distance (km) Brightness Sun altitude
Exits shadow 15:12:15 29° 162° (SSE) 1,944 4.2 -41.1°
Drops below altitude 10° 15:15:17 10° 152° (SSE) 2,881 5.4 -40.6°
Sets 15:17:44 0° 147° (SSE) 3,721 6.2 -40.2°
